Location: Pasadena-CA
(34.1440°N, 118.1100°W)
Time: 22:12:25
(UTC-07:00)

FALCONSAT 3 - Pass Details

Date: 03 July 2022
Orbit: 392 x 398 km, 35.4° (Epoch: 17 August)

Event Time Altitude Azimuth Distance (km) Brightness Sun altitude
Rises 20:51:40 0° 259° (W) 2,336 ? -8.5°
Reaches altitude 10° 20:53:47 10° 260° (W) 1,472 ? -8.9°
Maximum altitude 20:57:08 87° 347° (NNW) 412 ? -9.4°
Drops below altitude 10° 21:00:28 10° 79° (E) 1,461 ? -10.0°
Enters shadow 21:01:06 - 79° (E) 1,715 ? -10.1°
